Search for airport 
image banner adimage banner adimage banner ad
image banner ad

O21 - Hoopa

Located in Hoopa, United States

ICAO - O21, IATA -

Data provided by Airmate  

General information

Coordinates: N41°2'29" W123°40'4"
Elevation is 356 feet MSL.
Magnetic variation is 17° East
View others Airports in California

Operational data

Special qualification required
Current time UTC:
Current local time:
Weather at : KACV - Arcata ( 38 km )
METAR: KACV 231508Z AUTO 00000KT 10SM SCT001 10/09 A3003 RMK AO2 T01000094
TAF: KACV 231359Z 2314/2412 VRB03KT 2SM BR SCT003 TEMPO 2314/2315 1/4SM FG VV002 FM231800 28006KT 6SM HZ SCT004 SCT250 FM240300 19003KT 1SM BR SCT002
View NOTAMs / SUP AIP / TFR affecting this airport [VIEW]
Communications frequencies: [VIEW]

Runways:

RWY identifierQFULength (ft)Width (ft)SurfaceLDA (ft)
14232550ASPH
32232550ASPH

Airport contact information

Address: Hoopa United States

Satellite view of O21